Hourly Data Report for May 03, 2019

MIRAMICHI RCS
NEW BRUNSWICK
Current Station Operator: ECCC - MSC

47°00'34.000" N
65°27'54.000" W
33.00 m
8100989
71744
ACQ

Download Data

Hourly Data (May 2019)
Hourly Data Report for May 3, 2019
TIME
LST
Temp Definition
°C
Dew Point Definition
°C
Rel Hum Definition
%
Precip. Amount Definition
mm

Wind Dir Definition
10's deg

Wind Spd Definition
km/h
Visibility Definition
km
Stn Press Definition
kPa
Hmdx Definition


Wind Chill Definition


Weather Definition


00:00 0.1 -2.5 83 0.0 27 2   102.00     LegendNANA
01:00 -0.8 -3.0 85 0.0 34 2   101.95   -1 LegendNANA
02:00 -0.9 -2.8 87 0.0 26 4   101.90   -2 LegendNANA
03:00 -0.7 -2.4 88 0.0 24 2   101.87   -1 LegendNANA
04:00 -0.1 -1.7 89 0.0 28 7   101.88   -3 LegendNANA
05:00 -0.3 -2.0 88 0.0 26 6   101.83   -2 LegendNANA
06:00 -0.1 -1.9 88 0.0 25 5   101.84   -2 LegendNANA
07:00 3.2 -0.7 75 0.0 28 4   101.79     LegendNANA
08:00 7.8 -1.2 53 0.0 25 12   101.78     LegendNANA
09:00 9.4 -0.4 50 0.0 22 15   101.72     LegendNANA
10:00 12.6 0.1 42 0.0 23 7   101.63     LegendNANA
11:00 14.8 -0.6 35 0.0 23 14   101.56     LegendNANA
12:00 16.0 -2.8 27 0.0 21 15   101.46     LegendNANA
13:00 16.5 -1.1 30 0.0 23 16   101.43     LegendNANA
14:00 16.6 -0.9 30 0.0 26 13   101.36     LegendNANA
15:00 16.7 -0.8 30 0.0 24 16   101.31     LegendNANA
16:00 15.7 -0.8 33 0.0 23 23   101.28     LegendNANA
17:00 14.9 -1.7 32 0.0 23 20   101.23     LegendNANA
18:00 14.2 -1.8 33 0.0 23 15   101.21     LegendNANA
19:00 13.4 -0.8 38 0.0 21 7   101.20     LegendNANA
20:00 12.1 0.2 44 0.0 20 10   101.20     LegendNANA
21:00 11.4 0.5 47 0.0 21 16   101.20     LegendNANA
22:00 10.3 1.4 54 0.0 20 10   101.18     LegendNANA
23:00 9.2 3.5 68 0.0 21 18   101.18     LegendNANA

Notes on Data Quality.

Legend

  • E = Estimated
  • M = Missing
  • NA = Not Available*
  • [empty] = Indicates an unobserved value
Date modified: